Time,TemperatureF,DewpointF,PressureIn,WindDirection,WindDirectionDegrees,WindSpeedMPH,WindSpeedGustMPH,Humidity,HourlyPrecipIn,Conditions,Clouds,dailyrainin,SolarRadiationWatts/m^2,SoftwareType,DateUTC
2013-01-21 00:22:00,34.0,26.0,-100.00,SSE,154,0.0,0.0,71,0.00,,,0.00,0.000000,,2013-01-21 05:22:00,
2013-01-21 00:34:00,34.0,26.0,-100.00,SSE,154,0.0,0.0,71,0.00,,,0.00,0.000000,,2013-01-21 05:34:00,
2013-01-21 00:43:00,34.0,26.0,-100.00,SSE,154,0.0,0.0,71,0.00,,,0.00,0.000000,,2013-01-21 05:43:00,
2013-01-21 00:53:00,34.0,26.0,-100.00,SSE,154,0.0,0.0,71,0.00,,,0.00,0.000000,,2013-01-21 05:53:00,
2013-01-21 01:03:00,34.0,26.0,-100.00,SSE,154,0.0,0.0,71,0.00,,,0.00,0.000000,,2013-01-21 06:03:00,
2013-01-21 01:33:00,34.0,26.0,-100.00,NW,314,0.0,0.0,72,0.00,,,0.00,0.000000,,2013-01-21 06:33:00,
2013-01-21 01:43:00,34.0,26.0,-100.00,NW,314,0.0,0.0,72,0.00,,,0.00,0.000000,,2013-01-21 06:43:00,
2013-01-21 01:53:00,34.0,26.0,-100.00,NW,314,0.0,0.0,72,0.00,,,0.00,0.000000,,2013-01-21 06:53:00,
2013-01-21 02:03:00,34.0,26.0,-100.00,NW,314,0.0,0.0,72,0.00,,,0.00,0.000000,,2013-01-21 07:03:00,
2013-01-21 02:33:00,34.0,27.0,-100.00,NNE,12,0.0,0.0,74,0.00,,,0.00,0.000000,,2013-01-21 07:33:00,
2013-01-21 02:43:00,34.0,27.0,-100.00,NNE,12,0.0,0.0,74,0.00,,,0.00,0.000000,,2013-01-21 07:43:00,
2013-01-21 02:53:00,34.0,27.0,-100.00,NNE,12,0.0,0.0,74,0.00,,,0.00,0.000000,,2013-01-21 07:53:00,
2013-01-21 03:03:00,34.0,27.0,-100.00,NNE,12,0.0,0.0,74,0.00,,,0.00,0.000000,,2013-01-21 08:03:00,
2013-01-21 03:23:00,31.0,24.0,-100.00,SSW,195,0.0,0.0,75,0.00,,,0.00,0.000000,,2013-01-21 08:23:00,
2013-01-21 03:33:00,31.0,24.0,-100.00,SSW,195,0.0,0.0,75,0.00,,,0.00,0.000000,,2013-01-21 08:33:00,
2013-01-21 03:43:00,31.0,24.0,-100.00,SSW,195,0.0,0.0,75,0.00,,,0.00,0.000000,,2013-01-21 08:43:00,
2013-01-21 03:53:00,31.0,24.0,-100.00,SSW,195,0.0,0.0,75,0.00,,,0.00,0.000000,,2013-01-21 08:53:00,
2013-01-21 04:03:00,31.0,24.0,-100.00,SSW,195,0.0,0.0,75,0.00,,,0.00,0.000000,,2013-01-21 09:03:00,
2013-01-21 04:33:00,31.0,26.0,-100.00,North,10,0.0,0.0,81,0.00,,,0.00,0.000000,,2013-01-21 09:33:00,
2013-01-21 04:43:00,31.0,26.0,-100.00,North,10,0.0,0.0,81,0.00,,,0.00,0.000000,,2013-01-21 09:43:00,
2013-01-21 04:53:00,31.0,26.0,-100.00,North,10,0.0,0.0,81,0.00,,,0.00,0.000000,,2013-01-21 09:53:00,
2013-01-21 05:02:00,31.0,26.0,-100.00,North,10,0.0,0.0,81,0.00,,,0.00,0.000000,,2013-01-21 10:02:00,
2013-01-21 05:33:00,30.0,25.0,-100.00,NNE,18,0.0,0.0,81,0.00,,,0.00,0.000000,,2013-01-21 10:33:00,
2013-01-21 05:43:00,30.0,25.0,-100.00,NNE,18,0.0,0.0,81,0.00,,,0.00,0.000000,,2013-01-21 10:43:00,
2013-01-21 05:53:00,30.0,25.0,-100.00,NNE,18,0.0,0.0,81,0.00,,,0.00,0.000000,,2013-01-21 10:53:00,
2013-01-21 06:03:00,30.0,25.0,-100.00,NNE,18,0.0,0.0,81,0.00,,,0.00,0.000000,,2013-01-21 11:03:00,
2013-01-21 06:33:00,29.0,24.0,-100.00,NW,306,0.0,0.0,82,0.00,,,0.00,0.000000,,2013-01-21 11:33:00,
2013-01-21 06:43:00,29.0,24.0,-100.00,NW,306,0.0,0.0,82,0.00,,,0.00,0.000000,,2013-01-21 11:43:00,
2013-01-21 06:53:00,29.0,24.0,-100.00,NW,306,0.0,0.0,82,0.00,,,0.00,0.000000,,2013-01-21 11:53:00,
2013-01-21 07:03:00,29.0,24.0,-100.00,NW,306,0.0,0.0,82,0.00,,,0.00,0.000000,,2013-01-21 12:03:00,
2013-01-21 07:23:00,27.0,24.0,-100.00,SW,219,0.0,0.0,89,0.00,,,0.00,0.000000,,2013-01-21 12:23:00,
2013-01-21 07:33:00,27.0,24.0,-100.00,SW,219,0.0,0.0,89,0.00,,,0.00,0.000000,,2013-01-21 12:33:00,
2013-01-21 07:43:00,27.0,24.0,-100.00,SW,219,0.0,0.0,89,0.00,,,0.00,0.000000,,2013-01-21 12:43:00,
2013-01-21 07:53:00,27.0,24.0,-100.00,SW,219,0.0,0.0,89,0.00,,,0.00,0.000000,,2013-01-21 12:53:00,
2013-01-21 08:03:00,27.0,24.0,-100.00,SW,219,0.0,0.0,89,0.00,,,0.00,0.000000,,2013-01-21 13:03:00,
2013-01-21 08:33:00,27.0,24.0,-100.00,NNW,328,0.0,4.0,89,0.00,,,0.00,7.000000,,2013-01-21 13:33:00,
2013-01-21 08:43:00,27.0,24.0,-100.00,NNW,328,0.0,4.0,89,0.00,,,0.00,7.000000,,2013-01-21 13:43:00,
2013-01-21 08:54:00,27.0,24.0,-100.00,NNW,328,0.0,4.0,89,0.00,,,0.00,7.000000,,2013-01-21 13:54:00,
2013-01-21 09:03:00,27.0,24.0,-100.00,NNW,328,0.0,4.0,89,0.00,,,0.00,7.000000,,2013-01-21 14:03:00,
2013-01-21 09:33:00,35.0,31.0,-100.00,South,181,1.0,2.0,86,0.00,,,0.00,59.000000,,2013-01-21 14:33:00,
2013-01-21 09:43:00,35.0,31.0,-100.00,South,181,1.0,2.0,86,0.00,,,0.00,59.000000,,2013-01-21 14:43:00,
2013-01-21 09:54:00,35.0,31.0,-100.00,South,181,1.0,2.0,86,0.00,,,0.00,59.000000,,2013-01-21 14:54:00,
2013-01-21 10:03:00,35.0,31.0,-100.00,South,181,1.0,2.0,86,0.00,,,0.00,59.000000,,2013-01-21 15:03:00,
2013-01-21 10:04:00,44.0,30.0,-100.00,SSW,206,6.0,9.0,58,0.00,,,0.00,341.000000,,2013-01-21 15:04:00,
2013-01-21 10:33:00,44.0,30.0,-100.00,SSW,206,6.0,9.0,58,0.00,,,0.00,341.000000,,2013-01-21 15:33:00,
2013-01-21 10:43:00,44.0,30.0,-100.00,SSW,206,6.0,9.0,58,0.00,,,0.00,341.000000,,2013-01-21 15:43:00,
2013-01-21 10:53:00,44.0,30.0,-100.00,SSW,206,6.0,9.0,58,0.00,,,0.00,341.000000,,2013-01-21 15:53:00,
2013-01-21 11:33:00,50.0,30.0,-100.00,SSW,194,5.0,10.0,46,0.00,,,0.00,493.000000,,2013-01-21 16:33:00,
2013-01-21 11:44:00,50.0,30.0,-100.00,SSW,194,5.0,10.0,46,0.00,,,0.00,493.000000,,2013-01-21 16:44:00,
2013-01-21 11:53:00,50.0,30.0,-100.00,SSW,194,5.0,10.0,46,0.00,,,0.00,493.000000,,2013-01-21 16:53:00,
2013-01-21 12:03:00,50.0,30.0,-100.00,SSW,194,5.0,10.0,46,0.00,,,0.00,493.000000,,2013-01-21 17:03:00,
2013-01-21 12:33:00,53.0,29.0,-100.00,SSW,197,8.0,13.0,39,0.00,,,0.00,598.000000,,2013-01-21 17:33:00,
2013-01-21 12:43:00,53.0,29.0,-100.00,SSW,197,8.0,13.0,39,0.00,,,0.00,598.000000,,2013-01-21 17:43:00,
2013-01-21 12:53:00,53.0,29.0,-100.00,SSW,197,8.0,13.0,39,0.00,,,0.00,598.000000,,2013-01-21 17:53:00,
2013-01-21 13:03:00,53.0,29.0,-100.00,SSW,197,8.0,13.0,39,0.00,,,0.00,598.000000,,2013-01-21 18:03:00,
2013-01-21 13:33:00,57.0,24.0,-100.00,SW,236,10.0,20.0,28,0.00,,,0.00,629.000000,,2013-01-21 18:33:00,
2013-01-21 13:43:00,57.0,24.0,-100.00,SW,236,10.0,20.0,28,0.00,,,0.00,629.000000,,2013-01-21 18:43:00,
2013-01-21 13:53:00,57.0,24.0,-100.00,SW,236,10.0,20.0,28,0.00,,,0.00,629.000000,,2013-01-21 18:53:00,
2013-01-21 14:03:00,57.0,24.0,-100.00,SW,236,10.0,20.0,28,0.00,,,0.00,629.000000,,2013-01-21 19:03:00,
2013-01-21 14:23:00,58.0,23.0,-100.00,WNW,292,7.0,19.0,26,0.00,,,0.00,600.000000,,2013-01-21 19:23:00,
2013-01-21 14:33:00,58.0,23.0,-100.00,WNW,292,7.0,19.0,26,0.00,,,0.00,600.000000,,2013-01-21 19:33:00,
2013-01-21 14:43:00,58.0,23.0,-100.00,WNW,292,7.0,19.0,26,0.00,,,0.00,600.000000,,2013-01-21 19:43:00,
2013-01-21 14:53:00,58.0,23.0,-100.00,WNW,292,7.0,19.0,26,0.00,,,0.00,600.000000,,2013-01-21 19:53:00,
2013-01-21 15:03:00,58.0,23.0,-100.00,WNW,292,7.0,19.0,26,0.00,,,0.00,600.000000,,2013-01-21 20:03:00,
2013-01-21 15:04:00,58.0,22.0,-100.00,WSW,252,9.0,20.0,25,0.00,,,0.00,512.000000,,2013-01-21 20:04:00,
2013-01-21 15:33:00,58.0,22.0,-100.00,WSW,252,9.0,20.0,25,0.00,,,0.00,512.000000,,2013-01-21 20:33:00,
2013-01-21 15:43:00,58.0,22.0,-100.00,WSW,252,9.0,20.0,25,0.00,,,0.00,512.000000,,2013-01-21 20:43:00,
2013-01-21 15:53:00,58.0,22.0,-100.00,WSW,252,9.0,20.0,25,0.00,,,0.00,512.000000,,2013-01-21 20:53:00,
2013-01-21 16:33:00,57.0,20.0,-100.00,WSW,251,12.0,23.0,23,0.00,,,0.00,368.000000,,2013-01-21 21:33:00,
2013-01-21 16:43:00,57.0,20.0,-100.00,WSW,251,12.0,23.0,23,0.00,,,0.00,368.000000,,2013-01-21 21:43:00,
2013-01-21 16:54:00,57.0,20.0,-100.00,WSW,251,12.0,23.0,23,0.00,,,0.00,368.000000,,2013-01-21 21:54:00,
2013-01-21 17:03:00,57.0,20.0,-100.00,WSW,251,12.0,23.0,23,0.00,,,0.00,368.000000,,2013-01-21 22:03:00,
2013-01-21 17:23:00,53.0,17.0,-100.00,West,263,9.0,26.0,24,0.00,,,0.00,186.000000,,2013-01-21 22:23:00,
2013-01-21 17:33:00,53.0,17.0,-100.00,West,263,9.0,26.0,24,0.00,,,0.00,186.000000,,2013-01-21 22:33:00,
2013-01-21 17:43:00,53.0,17.0,-100.00,West,263,9.0,26.0,24,0.00,,,0.00,186.000000,,2013-01-21 22:43:00,
2013-01-21 17:53:00,53.0,17.0,-100.00,West,263,9.0,26.0,24,0.00,,,0.00,186.000000,,2013-01-21 22:53:00,
2013-01-21 18:03:00,53.0,17.0,-100.00,West,263,9.0,26.0,24,0.00,,,0.00,186.000000,,2013-01-21 23:03:00,
2013-01-21 18:33:00,47.0,14.0,-100.00,NW,313,5.0,15.0,26,0.00,,,0.00,23.000000,,2013-01-21 23:33:00,
2013-01-21 18:43:00,47.0,14.0,-100.00,NW,313,5.0,15.0,26,0.00,,,0.00,23.000000,,2013-01-21 23:43:00,
2013-01-21 18:53:00,47.0,14.0,-100.00,NW,313,5.0,15.0,26,0.00,,,0.00,23.000000,,2013-01-21 23:53:00,
2013-01-21 19:03:00,47.0,14.0,-100.00,NW,313,5.0,15.0,26,0.00,,,0.00,23.000000,,2013-01-22 00:03:00,
2013-01-21 19:23:00,45.0,14.0,-100.00,West,265,9.0,15.0,28,0.00,,,0.00,0.000000,,2013-01-22 00:23:00,
2013-01-21 19:33:00,45.0,14.0,-100.00,West,265,9.0,15.0,28,0.00,,,0.00,0.000000,,2013-01-22 00:33:00,
2013-01-21 19:43:00,45.0,14.0,-100.00,West,265,9.0,15.0,28,0.00,,,0.00,0.000000,,2013-01-22 00:43:00,
2013-01-21 19:53:00,45.0,14.0,-100.00,West,265,9.0,15.0,28,0.00,,,0.00,0.000000,,2013-01-22 00:53:00,
2013-01-21 20:02:00,45.0,14.0,-100.00,West,265,9.0,15.0,28,0.00,,,0.00,0.000000,,2013-01-22 01:02:00,
2013-01-21 20:23:00,42.0,11.0,-100.00,West,263,7.0,14.0,28,0.00,,,0.00,0.000000,,2013-01-22 01:23:00,
2013-01-21 20:33:00,42.0,11.0,-100.00,West,263,7.0,14.0,28,0.00,,,0.00,0.000000,,2013-01-22 01:33:00,
2013-01-21 20:43:00,42.0,11.0,-100.00,West,263,7.0,14.0,28,0.00,,,0.00,0.000000,,2013-01-22 01:43:00,
2013-01-21 20:53:00,42.0,11.0,-100.00,West,263,7.0,14.0,28,0.00,,,0.00,0.000000,,2013-01-22 01:53:00,
2013-01-21 21:03:00,42.0,11.0,-100.00,West,263,7.0,14.0,28,0.00,,,0.00,0.000000,,2013-01-22 02:03:00,
2013-01-21 21:33:00,40.0,13.0,-100.00,West,265,4.0,12.0,32,0.00,,,0.00,0.000000,,2013-01-22 02:33:00,
2013-01-21 21:43:00,40.0,13.0,-100.00,West,265,4.0,12.0,32,0.00,,,0.00,0.000000,,2013-01-22 02:43:00,
2013-01-21 21:53:00,40.0,13.0,-100.00,West,265,4.0,12.0,32,0.00,,,0.00,0.000000,,2013-01-22 02:53:00,
2013-01-21 22:03:00,40.0,13.0,-100.00,West,265,4.0,12.0,32,0.00,,,0.00,0.000000,,2013-01-22 03:03:00,
2013-01-21 22:22:00,37.0,11.0,-100.00,West,261,3.0,9.0,33,0.00,,,0.00,0.000000,,2013-01-22 03:22:00,
2013-01-21 22:33:00,37.0,11.0,-100.00,West,261,3.0,9.0,33,0.00,,,0.00,0.000000,,2013-01-22 03:33:00,
2013-01-21 22:43:00,37.0,11.0,-100.00,West,261,3.0,9.0,33,0.00,,,0.00,0.000000,,2013-01-22 03:43:00,
2013-01-21 22:53:00,37.0,11.0,-100.00,West,261,3.0,9.0,33,0.00,,,0.00,0.000000,,2013-01-22 03:53:00,
2013-01-21 23:03:00,37.0,11.0,-100.00,West,261,3.0,9.0,33,0.00,,,0.00,0.000000,,2013-01-22 04:03:00,
2013-01-21 23:04:00,38.0,13.0,-100.00,West,266,5.0,11.0,35,0.00,,,0.00,0.000000,,2013-01-22 04:04:00,
2013-01-21 23:33:00,38.0,13.0,-100.00,West,266,5.0,11.0,35,0.00,,,0.00,0.000000,,2013-01-22 04:33:00,
2013-01-21 23:43:00,38.0,13.0,-100.00,West,266,5.0,11.0,35,0.00,,,0.00,0.000000,,2013-01-22 04:43:00,
2013-01-21 23:53:00,38.0,13.0,-100.00,West,266,5.0,11.0,35,0.00,,,0.00,0.000000,,2013-01-22 04:53:00,